Weather History for Huron, SD

Change the Weather History Date:

Wednesday, August 13, 2014

  Actual Average Record
Temperature  
Mean Temperature 71 °F 72 °F  
Max Temperature 86 °F 85 °F 110 °F (1965)
Min Temperature 55 °F 60 °F 36 °F (1964)
Degree Days  
Heating Degree Days 0 0  
Month to date heating degree days 1 0  
Since 1 June heating degree days 64 59  
Since 1 July heating degree days 24 8  
Cooling Degree Days 6 8  
Month to date cooling degree days 68 110  
Year to date cooling degree days 410 553  
Since 1 June cooling degree days 348 520  
Growing Degree Days 20 (Base 50)    
Moisture  
Dew Point 56 °F    
Average Humidity 67    
Maximum Humidity 93    
Minimum Humidity 40    
Precipitation  
Precipitation 0.00 in 0.08 in 1.49 in (1887)
Month to date precipitation 0.43 1.17  
Year to date precipitation 10.96 16.00  
Snow  
Snow 0.00 in 0.00 in 0.00 in ()
Month to date snowfall 0.0 0.0  
Since 1 June snowfall 0.0 0.0  
Since 1 July snowfall 0.0 0.0  
Snow Depth 0.00 in    
Sea Level Pressure  
Sea Level Pressure 30.04 in    
Wind  
Wind Speed 7 mph (SSE)    
Max Wind Speed 14 mph    
Max Gust Speed 20 mph    
Visibility 10 miles    
Events      
T = Trace of Precipitation, MM = Missing Value Source: NWS Daily Summary

Daily Weather History Graph

Daily Weather History Graph

Search for Another Location

Airport:

Trip Planner

Search our weather history database for the weather conditions in past years. The results will help you decide how hot, cold, wet, or windy it might be!

Date:

Astronomy

Aug. 13, 2014 Rise Set
Actual Time 6:33 AM CDT 8:40 PM CDT
Civil Twilight 6:01 AM CDT 9:12 PM CDT
Nautical Twilight 5:22 AM CDT 9:51 PM CDT
Astronomical Twilight 4:39 AM CDT 10:34 PM CDT
Moon 10:15 PM CDT (8/13) 10:13 AM CDT (8/13)
Length of Visible Light 15h 10m
Length of Day
14h 07m
Waning Gibbous, 87% of the Moon is Illuminated
Aug 13
Waning Gibbous
Aug 17
Last Quarter
Aug 25
New
Sep 2
First Quarter
Sep 8
Full

Hourly Weather History & Observations

Time (CDT) Temp. Heat Index Dew Point Humidity Pressure Visibility Wind Dir Wind Speed Gust Speed Precip Events Conditions
12:55 AM 63.0 °F - 53.1 °F 70% 30.07 in 10.0 mi SE 3.5 mph - N/A   Clear
1:55 AM 60.1 °F - 53.1 °F 78% 30.07 in 10.0 mi SSE 3.5 mph - N/A   Clear
2:55 AM 57.9 °F - 53.1 °F 84% 30.08 in 10.0 mi SE 3.5 mph - N/A   Clear
3:55 AM 57.9 °F - 53.1 °F 84% 30.07 in 10.0 mi SSE 3.5 mph - N/A   Clear
4:55 AM 55.9 °F - 52.0 °F 87% 30.07 in 10.0 mi Calm Calm - N/A   Clear
5:55 AM 55.9 °F - 53.1 °F 90% 30.07 in 10.0 mi SE 3.5 mph - N/A   Clear
9:55 AM 71.6 °F - 60.8 °F 69% 30.09 in 10.0 mi Variable 4.6 mph - N/A   Clear
10:55 AM 75.9 °F - 61.0 °F 60% 30.08 in 10.0 mi SSE 8.1 mph - N/A   Clear
11:55 AM 80.1 °F 80.7 °F 59.0 °F 48% 30.06 in 10.0 mi South 6.9 mph - N/A   Clear
12:55 PM 82.9 °F 82.6 °F 57.9 °F 42% 30.04 in 10.0 mi South 10.4 mph - N/A   Clear
1:55 PM 84.0 °F 83.3 °F 57.0 °F 40% 30.03 in 10.0 mi SE 9.2 mph 16.1 mph N/A   Clear
2:55 PM 84.9 °F 83.9 °F 57.0 °F 38% 30.01 in 10.0 mi SSE 10.4 mph - N/A   Clear
3:55 PM 84.9 °F 84.4 °F 59.0 °F 41% 30.01 in 10.0 mi South 6.9 mph - N/A   Clear
4:55 PM 84.9 °F 84.2 °F 57.9 °F 40% 30.00 in 10.0 mi SE 10.4 mph - N/A   Clear
5:55 PM 82.9 °F 82.1 °F 55.9 °F 39% 30.00 in 10.0 mi SSE 6.9 mph - N/A   Clear
6:55 PM 82.9 °F 82.0 °F 55.0 °F 38% 29.99 in 10.0 mi SSE 12.7 mph 19.6 mph N/A   Clear
7:55 PM 80.1 °F 80.6 °F 57.9 °F 47% 29.99 in 10.0 mi SSE 9.2 mph - N/A   Clear
8:55 PM 75.9 °F - 57.9 °F 54% 29.99 in 10.0 mi SE 6.9 mph - N/A   Clear
11:55 PM 66.9 °F - 57.9 °F 73% 30.02 in 10.0 mi SE 6.9 mph - N/A   Clear